This demonstration page uses our WeatherBlox Daily Observations layout. Learn more.

Left ArrowRight Arrow

Hourly Observations for May 9, 2020

Temp ( °F °C ) Dew Point ( °F °C ) Humidity (%) Winds ( mph kmh ) Pressure ( in mb ) Visibility ( mi km ) Precip ( " mm )
12:54 am 00:54 Clear 38 3.3 32 0 79 79 Calm 30.29 1026 10 16.0934 0 0
1:54 am 01:54 Clear 37 2.8 32 0 82 82 Calm 30.28 1025 10 16.0934 0 0
2:54 am 02:54 Clear 37 2.8 31 -0.6 79 79 Calm 30.27 1025 10 16.0934 0 0
3:54 am 03:54 Clear 35 1.7 31 -0.6 85 85 S 3 6 30.26 1025 10 16.0934 0 0
4:54 am 04:54 Clear 35 1.7 30 -1.1 82 82 SSE 5 7 30.24 1024 10 16.0934 0 0
5:54 am 05:54 Clear 36 2.2 31 -0.6 82 82 Calm 30.25 1025 10 16.0934 0 0
6:54 am 06:54 Sunny 36 2.2 32 0 86 86 S 3 6 30.26 1025 10 16.0934 0 0
7:54 am 07:54 Sunny 41 5 34 1.1 76 76 S 5 7 30.26 1025 10 16.0934 0 0
8:54 am 08:54 Sunny 46 7.8 36 2.2 68 68 SSW 6 9 30.27 1025 10 16.0934 0 0
9:54 am 09:54 Sunny 53 11.7 33 0.6 47 47 SSW 12 19 30.25 1025 10 16.0934 0 0
10:54 am 10:54 Sunny 56 13.3 31 -0.6 39 39 SW 16 26 30.23 1024 10 16.0934 0 0
11:54 am 11:54 Sunny 60 15.6 32 0 35 35 SW 15 24 30.22 1023 10 16.0934 0 0
12:54 pm 12:54 Sunny 64 17.8 31 -0.6 29 29 WSW 18 30 30.18 1022 10 16.0934 0 0
1:54 pm 13:54 Sunny 66 18.9 30 -1.1 26 26 W 18 30 30.15 1021 10 16.0934 0 0
2:54 pm 14:54 Partly Cloudy 69 20.6 30 -1.1 23 23 W 13 20 30.12 1020 10 16.0934 0 0
3:54 pm 15:54 Mostly Sunny 66 18.9 29 -1.7 25 25 W 15 24 30.11 1020 10 16.0934 0 0
4:28 pm 16:28 Cloudy with Light Rain 56 13.3 44 6.7 65 65 NW 28 44 30.14 1021 10 16.0934 0.001 0.001
4:54 pm 16:54 Mostly Cloudy with Light Rain 57 13.9 43 6.1 60 60 NW 21 33 30.17 1022 10 16.0934 0.001 0.001
5:54 pm 17:54 Cloudy with Light Rain 51 10.6 45 7.2 80 80 WNW 22 35 30.17 1022 9 14.48406 0.001 0.001
6:54 pm 18:54 Cloudy 51 10.6 43 6.1 74 74 WSW 9 15 30.17 1022 10 16.0934 0.03 0.762
7:54 pm 19:54 Cloudy 52 11.1 44 6.7 75 75 WSW 7 11 30.16 1021 10 16.0934 0 0
8:54 pm 20:54 Mostly Cloudy 50 10 44 6.7 80 80 WNW 9 15 30.19 1022 10 16.0934 0 0
9:54 pm 21:54 Clear 47 8.3 32 0 56 56 NW 21 33 30.23 1024 10 16.0934 0 0
10:54 pm 22:54 Clear 45 7.2 31 -0.6 58 58 NW 15 24 30.25 1024 10 16.0934 0 0
11:54 pm 23:54 Cloudy 45 7.2 32 0 61 61 NNW 30 48 30.26 1025 10 16.0934 0 0

Powered by AerisWeather